User: anonymous   Login
Location: Tarrant
(32.8168°N, 97.0772°W)
Time: 01:22:27
(UTC+00:00)
Language:

COSMOS 2455 - Orbit

View from above orbital plane
View from above orbital plane
View from above satellite
View from above satellite

Ground track
Ground track

The orbit data is extracted from the following two-line orbital elements,

1 36095U 09063A   23027.39457859  .00000008  00000-0  59896-4 0  9994
2 36095  67.1485  20.2117 0007983 290.3357  69.6870 13.96815558672388
Epoch (UTC): 27 January 2023 09:28:11
Eccentricity: 0.0007983
inclination: 67.1485°
perigee height: 899 km
apogee height: 910 km
right ascension of ascending node: 20.2117°
argument of perigee: 290.3357°
revolutions per day: 13.96815558
mean anomaly at epoch: 69.6870°
orbit number at epoch: 67238

The dashed part of the orbit path shows where the satellite is in the earth's shadow,  

DLR